Regional Weather Roundup
Issued by NWS

Current Version | Previous Version | Text Only | Print | Product List | Glossary On
Versions: 1 2 3 4 5 6 7 8 9 10 11 12 13 14 15 16 17 18 19 20 21 22 23 24 25 26 27 28 29 30 31 32 33 34 35 36 37 38 39 40 41 42 43 44 45 46 47 48 49 50
000
ASUS45 KBOU 010710
RWRCO

WEATHER ROUNDUP FOR COLORADO
NATIONAL WEATHER SERVICE DENVER/BOULDER CO
1200 AM MST MON MAR 01 2021

NOTE: "FAIR" INDICATES FEW OR NO CLOUDS BELOW 12000 FEET WITH NO
SIGNIFICANT WEATHER AND/OR OBSTRUCTIONS TO VISIBILITY.

COZ001>005-013-030-031-010800-
...NORTHWEST COLORADO...

CITY           SKY/WX    TMP DP  RH WIND       PRES   REMARKS
CRAIG          FAIR       6   2  83 CALM      30.35R
HAYDEN         FAIR       9  -1  64 E9        30.35R WCI  -4
MEEKER         FAIR      12  -1  56 E8        30.34R WCI   0
RANGELY        FAIR      19   9  67 CALM      30.35R
RABBIT EARS PA FAIR       3   0  85 W9        30.19R WCI -11
STEAMBOAT SPGS FAIR       6   0  76 CALM      30.32S
WALDEN         FAIR      -1 -10  63 E7        30.27R WCI -14
$$

COZ006>008-011-010800-
...WEST CENTRAL VALLEYS...

CITY           SKY/WX    TMP DP  RH WIND       PRES   REMARKS
GRAND JUNCTION FAIR      19  -2  39 E5        30.34R WCI  12
MONTROSE       FAIR      20   4  50 SE10      30.35R WCI   9
EAGLE          FAIR      12   3  67 CALM      30.37R
RIFLE          FAIR      18   6  59 S3        30.37R
DELTA          FAIR      22  -1  36 NE8       30.36R WCI  13
NUCLA          NOT AVBL
$$

COZ017>023-064>068-010800-
...SOUTHWEST COLORADO...

CITY           SKY/WX    TMP DP  RH WIND       PRES   REMARKS
DURANGO        FAIR      20   8  60 NE5       30.23R WCI  13
CORTEZ         FAIR      17   9  70 NE7       30.28S WCI   8
PAGOSA SPRINGS FAIR      10  -1  60 CALM      30.22S
TELLURIDE      FAIR       9  -2  61 SE7       30.25S WCI  -3
WOLF CREEK PAS FAIR       9 -24  21 CALM      30.20R
$$

COZ009-010-012-014-032>034-037-058>063-010800-
...CENTRAL COLORADO...

CITY           SKY/WX    TMP DP  RH WIND       PRES   REMARKS
ASPEN          FAIR       5  -5  63 S8        30.30R WCI  -8
BUENA VISTA    FAIR      17  -6  35 NW16G26   30.21R WCI   1
COPPER MTN     FAIR       5  -4  66 CALM        N/A
BERTHOUD PASS  FAIR      -6 -18  54 NW22G31   30.08S WCI -31
DAKOTA HILL    FAIR       5  -4  66 NW13G25   30.10R WCI -12
COTTONWOOD PAS FAIR      14 -15  26 W8        30.16R WCI   3
GUNNISON       FAIR       4  -4  69 CALM      30.31R
GRANBY         FAIR      -2  -7  78 CALM      30.31R
KREMMLING      FAIR       0  -6  78 CALM      30.35R
LEADVILLE      FAIR      -2 -11  65 NE10      30.20R WCI -19
MONARCH PASS   FAIR       3 -13  47 W23G29    30.23R WCI -19
SALIDA         FAIR      20  -5  32 NW10      30.30R WCI   9
SUNLIGHT       FAIR       7  -8  51 NW6       30.25R WCI  -3
WILKERSON PASS FAIR      10 -15  31 W8        30.14R WCI  -1
$$

COZ069>075-010800-
...SAN LUIS VALLEY/SANGRE DE CRISTO MOUNTAINS...

CITY           SKY/WX    TMP DP  RH WIND       PRES   REMARKS
ALAMOSA        FAIR       8   1  73 CALM      30.23R
DEL NORTE      FAIR      14  -4  44 W13       30.23R WCI   0
LA VETA PASS   FAIR      10  -9  40 W18G25    30.09R WCI  -8
SAGUACHE       FAIR      18  -4  38 NW14      30.24R WCI   4
$$

COZ035-036-038>040-010800-
...NORTHERN COLORADO FRONT RANGE...

CITY           SKY/WX    TMP DP  RH WIND       PRES   REMARKS
DENVER INTL AP FAIR      23   9  55 SW9       30.18R WCI  13
AURORA         CLEAR     21   5  48 S8        30.18R WCI  12
WATKINS        NOT AVBL
ERIE           FAIR      18  11  74 CALM      30.19R
BOULDER        FAIR      28   7  40 CALM      30.18R
CENTENNIAL     FAIR      22  -2  35 SW8       30.17R WCI  12
BROOMFIELD     FAIR      28   5  37 W5        30.18R WCI  23
FORT COLLINS   FAIR      24   9  52 CALM      30.19R
LONGMONT       FAIR      23   9  56 CALM      30.21R
$$

COZ041-046-047-076>085-087-088-010800-
...PIKES PEAK/PALMER DIVIDE AND SOUTHERN FOOTHILLS...

CITY           SKY/WX    TMP DP  RH WIND       PRES   REMARKS
COLO. SPRINGS  FAIR      20  11  68 N7        30.17R WCI  11
A. F. ACADEMY  FAIR      15   6  65 N7        30.14R WCI   5
SCHRIEVER AFB  NOT AVBL
CHEYENNE MTN   FAIR      21  -3  34 NW5       30.10R WCI  14
ELLICOTT       FAIR      18  12  79 NE8       30.18R WCI   7
FALCON         FAIR      17   8  67 NW3       30.16R
FORT CARSON    FAIR      19   8  61 NW6       30.17R WCI  11
LIMON          FAIR      16  10  77 N6        30.19R WCI   7
MONUMENT HILL  FAIR      19   0  42 SW7       30.17R WCI  10
CANON CITY     FAIR      32  -4  21 NW16G24   30.17R WCI  21
WALSENBURG     NOT AVBL
TRINIDAD       FAIR      20  13  74 W10       30.16S WCI   9
$$

COZ042>045-048>051-090-091-010800-
...NORTHEAST COLORADO...

CITY           SKY/WX    TMP DP  RH WIND       PRES   REMARKS
GREELEY        FAIR      15   4  61 W3        30.21R
AKRON          FAIR      24   5  44 NW5       30.19R WCI  18
BURLINGTON     FAIR      18   5  57 W10       30.20R WCI   6
WRAY           FAIR      23  12  63 W5        30.22R WCI  17
YUMA           FAIR      18   9  68 W9        30.21R WCI   6
STERLING       FAIR      23   9  54 SW5       30.20R WCI  17
HOLYOKE        FAIR      30  14  51 W10       30.20S WCI  21
FORT MORGAN    FAIR      23   3  42 S5        30.21R WCI  17
$$

COZ086-089-092>099-010800-
...SOUTHEAST COLORADO...

CITY           SKY/WX    TMP DP  RH WIND       PRES   REMARKS
PUEBLO         FAIR      19  13  77 NW5       30.19R WCI  12
LA JUNTA       FAIR      27  11  51 SW8       30.20R WCI  19
LAMAR          FAIR      20   6  55 CALM      30.20R
SPRINGFIELD      N/A     13   5  70 SW5       30.19R WCI   5
$$




USA.gov is the U.S. government's official web portal to all federal, state and local government web resources and services.